IRIDIUM 112

Last updated on Sun Jun 21 2026 00:03:13 GMT+0000 (Coordinated Universal Time)

1 41925U 17003J 26171.27312800 -.00000203 00000+0 -79622-4 0 9998 2 41925 86.3958 87.0169 0002257 82.7525 277.3927 14.34217216493710
UTC large
Height (km)
Speed (km/s)
/
Latitude / Longitude
Inclination (degrees)
Orbital Period (minutes)
Azimuth
Elevation
Range (km)
Doppler Factor

Next 0 passes for location: London (51.5072 / 0.1276)

No passes found over London.
IRIDIUM 112